User: anonymous
Location: Montr�al
(45.5000°N, 73.5830°W)
Time: 14:26:36
(UTC-04:00)
Language:

Cosmos 1470 Rocket - Orbit

View from above orbital plane
View from above orbital plane
View from above satellite
View from above satellite

Ground track
Ground track

The orbit data is extracted from the following two-line orbital elements,

1 14148U 83061B   14110.04763924  .00000956  00000-0  11538-3 0  6198
2 14148 082.5178 270.1852 0022472 172.0501 327.3113 14.82621285663788
Epoch (UTC): 20 April 2014 01:08:36
Eccentricity: 0.0022472
inclination: 82.5178°
perigee height: 605 km
apogee height: 637 km
right ascension of ascending node: 270.1852°
argument of perigee: 172.0501°
revolutions per day: 14.82621285
mean anomaly at epoch: 327.3113°
orbit number at epoch: 66378

The dashed part of the orbit path shows where the satellite is in the earth's shadow,  

DLR